Location: Home
(42.5358°N, 72.7383°W)
Time: 23:17:58
(UTC-04:00)

CZ-4 DEB - Visible Passes

Search period start: 14 September 2024 00:00
Search period end: 24 September 2024 00:00
Orbit: 667 x 790 km, 98.6° (Epoch: 14 September)

Date Brightness Start Highest point End Pass type
(mag) Time Alt. Az. Time Alt. Az. Time Alt. Az.
14 Sep ? 20:49:14 34° SSE 20:51:14 85° ENE 20:55:50 10° NNW visible
15 Sep ? 20:01:22 17° ESE 20:03:59 28° ENE 20:07:55 10° N visible
15 Sep ? 21:40:48 24° SW 21:42:10 29° W 21:46:10 10° NW visible
16 Sep ? 20:52:56 40° SSE 20:54:34 89° WSW 20:59:11 10° NNW visible
17 Sep ? 20:05:02 20° ESE 20:07:16 30° ENE 20:11:17 10° N visible
17 Sep ? 21:44:28 25° WSW 21:45:29 27° W 21:49:24 10° NW visible
18 Sep ? 19:18:53 10° ENE 19:20:18 11° ENE 19:21:43 10° NE visible
18 Sep ? 20:56:33 48° S 20:57:49 84° WSW 21:02:28 10° NNW visible
19 Sep ? 20:08:37 24° ESE 20:10:28 32° ENE 20:14:35 10° N visible
19 Sep ? 21:48:03 24° WSW 21:48:44 25° W 21:52:33 10° NW visible
20 Sep ? 19:21:39 10° E 19:23:27 12° ENE 19:25:15 10° NE visible
20 Sep ? 21:00:06 57° S 21:01:00 78° WSW 21:05:39 10° NNW visible
21 Sep ? 20:12:08 28° ESE 20:13:36 35° ENE 20:17:48 10° N visible
21 Sep ? 21:51:33 24° WSW 21:51:54 24° W 21:55:38 10° NW visible
22 Sep ? 19:24:26 10° E 19:26:32 13° ENE 19:28:38 10° NNE visible
22 Sep ? 21:03:34 65° SSW 21:04:07 73° WSW 21:08:47 10° NNW visible
23 Sep ? 20:15:33 32° E 20:16:39 37° ENE 20:20:57 10° N visible
23 Sep ? 21:54:59 22° W 21:54:59 22° W 21:58:39 10° NW visible
